STARLINK-1825 (46722 NORAD) Tracking and Keplerian Element Data

This shows tracking and keplerian element data for the satellite.

Feedback or suggestion? Click here.




ElementValue
Catalog46722
NameSTARLINK-1825
Epoch Orbit655
Epoch Day331.16668981
Epoch Year2020
RAAN280.1094
Inclination53.0552
Eccentricity0.0001272
Argument of Perigee65.4229
Mean Anonmoly223.4722
Mean Motion15.3670972
Decay Rate-0.01078335
L11 46722U 20073BE 20331.16668981 -.01078335 00000-0 -32305-1 0 9990
L22 46722 53.0552 280.1094 0001272 65.4229 223.4722 15.36709720 6555

Live tracking and technical data element details for STARLINK-1825 (NORAD 46722). STARLINK-1825 can be tracked NOW for your location showing map with azimuth and elevation plus other details from your city location.

Track the satellite on the map from your city or location and see movement details for azimuth, elevation, latitude, longitude, range, height, and movement on the map or in text.







IsCatalogInMostPopularTable: catalog: 46722, numindb: 8
Update: records affected: 1



GetName: 46722 STARLINK-1825

Hit Count: updated at: Thu, 26 Nov 2020 17:19:19 GMT